TimeMST,TemperatureF,Dew PointF,Humidity,Sea Level PressureIn,VisibilityMPH,Wind Direction,Wind SpeedMPH,Gust SpeedMPH,PrecipitationIn,Events,Conditions,WindDirDegrees,DateUTC
12:00 AM,3.2,-0.4,85,30.11,10.0,ENE,5.8,-,N/A,,Scattered Clouds,70,2013-02-25 07:00:00
12:53 AM,-0.9,-4.0,87,30.35,10.0,ESE,4.6,-,N/A,,Clear,120,2013-02-25 07:53:00
1:53 AM,-2.9,-8.0,79,30.37,10.0,Calm,Calm,-,N/A,,Clear,0,2013-02-25 08:53:00
2:53 AM,-7.6,-11.2,84,30.13,10.0,Calm,Calm,-,N/A,,Clear,0,2013-02-25 09:53:00
3:53 AM,-9.0,-16.1,71,30.43,10.0,Calm,Calm,-,N/A,,Clear,0,2013-02-25 10:53:00
4:13 AM,-7.6,-14.8,71,30.15,10.0,Calm,Calm,-,N/A,,Scattered Clouds,0,2013-02-25 11:13:00
4:53 AM,-7.1,-14.1,72,30.43,10.0,Calm,Calm,-,N/A,,Partly Cloudy,0,2013-02-25 11:53:00
5:07 AM,-7.6,-14.8,71,30.16,10.0,Calm,Calm,-,N/A,,Mostly Cloudy,0,2013-02-25 12:07:00
5:53 AM,-7.1,-15.0,68,30.43,10.0,Calm,Calm,-,N/A,,Mostly Cloudy,0,2013-02-25 12:53:00
6:27 AM,-5.8,-13.0,71,30.16,1.8,Calm,Calm,-,N/A,,Haze,0,2013-02-25 13:27:00
6:45 AM,-4.0,-11.2,71,30.16,3.0,Calm,Calm,-,N/A,,Haze,0,2013-02-25 13:45:00
6:53 AM,-5.1,-11.9,72,30.45,5.0,Calm,Calm,-,N/A,,Haze,0,2013-02-25 13:53:00
7:00 AM,-5.8,-14.8,65,30.16,2.5,Calm,Calm,-,N/A,,Haze,0,2013-02-25 14:00:00
7:15 AM,-7.6,-14.8,71,30.17,7.0,Calm,Calm,-,N/A,,Mostly Cloudy,0,2013-02-25 14:15:00
7:30 AM,-5.8,-11.2,77,30.17,1.5,Calm,Calm,-,N/A,,Haze,0,2013-02-25 14:30:00
7:37 AM,-4.0,-11.2,71,30.17,0.2,Calm,Calm,-,N/A,,Haze,0,2013-02-25 14:37:00
7:53 AM,-0.9,-9.0,69,30.43,1.0,Calm,Calm,-,N/A,,Haze,0,2013-02-25 14:53:00
8:00 AM,-0.4,-9.4,66,30.17,2.0,Calm,Calm,-,N/A,,Haze,0,2013-02-25 15:00:00
8:10 AM,-0.4,-7.6,72,30.17,7.0,Calm,Calm,-,N/A,,Clear,0,2013-02-25 15:10:00
8:22 AM,3.2,-7.6,61,30.16,2.5,Calm,Calm,-,N/A,,Haze,0,2013-02-25 15:22:00
8:33 AM,1.4,-9.4,61,30.16,7.0,Calm,Calm,-,N/A,,Partly Cloudy,0,2013-02-25 15:33:00
8:53 AM,1.9,-7.1,66,30.45,6.0,SSW,6.9,-,N/A,,Haze,210,2013-02-25 15:53:00
9:53 AM,9.0,-2.0,61,30.43,10.0,WSW,3.5,-,N/A,,Clear,240,2013-02-25 16:53:00
10:53 AM,12.0,1.9,64,30.40,10.0,Calm,Calm,-,N/A,,Clear,0,2013-02-25 17:53:00
11:53 AM,12.9,6.1,74,30.38,10.0,SW,5.8,-,N/A,,Clear,230,2013-02-25 18:53:00
12:53 PM,16.0,8.1,71,30.34,10.0,SW,6.9,-,N/A,,Clear,220,2013-02-25 19:53:00
1:53 PM,19.9,10.0,65,30.30,10.0,Calm,Calm,-,N/A,,Clear,0,2013-02-25 20:53:00
2:53 PM,26.1,9.0,49,30.27,10.0,East,5.8,-,0.00,,Clear,80,2013-02-25 21:53:00
3:53 PM,26.1,9.0,49,30.25,10.0,East,6.9,-,0.00,,Clear,80,2013-02-25 22:53:00
4:53 PM,25.0,7.0,46,30.22,10.0,ENE,8.1,-,0.00,,Clear,70,2013-02-25 23:53:00
5:53 PM,21.9,6.1,51,30.22,10.0,NE,3.5,-,N/A,,Clear,50,2013-02-26 00:53:00
6:53 PM,18.0,5.0,57,30.21,10.0,Calm,Calm,-,N/A,,Clear,0,2013-02-26 01:53:00
7:53 PM,15.1,3.9,61,30.19,10.0,Calm,Calm,-,N/A,,Clear,0,2013-02-26 02:53:00
8:53 PM,12.9,3.9,67,30.19,10.0,Calm,Calm,-,N/A,,Partly Cloudy,0,2013-02-26 03:53:00
9:53 PM,12.9,3.9,67,30.17,10.0,Calm,Calm,-,N/A,,Mostly Cloudy,0,2013-02-26 04:53:00
10:53 PM,12.9,6.1,74,30.15,10.0,Calm,Calm,-,N/A,,Overcast,0,2013-02-26 05:53:00
11:53 PM,14.0,5.0,67,30.11,10.0,East,3.5,-,N/A,,Overcast,80,2013-02-26 06:53:00